Date String (YYYY-MM-DD hh:mm:ss) UTC,Instrument flags,Ambient pressure (hPa),Sample flow (lpm),Bypass flow (lpm),Sample temperature (°C),Ambient temperature (°C),ASC tube jacket temperature (°C),LED temperature (°C),Box temperature (°C),Sample RH (%),Span deviation,Mass concentration (μg/m³),Mass concentration (μg/m³),Mass concentration (μg/m³)
DateTimeUTC,F1_M11,P_M11,Q1_M11,Q2_M11,T1_M11,T2_M11,T3_M11,T4_M11,T5_M11,U1_M11,ZSPAN_M11,X0_M11,X2_M11,X1_M11
2022-11-21 19:00:00,,0829.3,5.00,0.00,26.2,25.2,00.0,34.9,28.1,08.4,0003.5,0010.89,0006.80,0006.45
2022-11-21 19:01:00,,0829.3,5.00,0.00,26.2,25.3,00.0,34.9,28.1,08.1,0001.3,0010.88,0006.88,0006.53
2022-11-21 19:02:00,,0829.2,5.01,0.00,26.2,25.3,00.0,34.9,28.1,07.9,0003.9,0010.43,0006.95,0006.62
2022-11-21 19:03:00,,0829.3,5.00,0.00,26.2,25.3,00.0,34.9,28.1,08.1,0004.1,0010.31,0007.04,0006.70
2022-11-21 19:04:00,,0829.2,4.99,0.00,26.3,25.3,00.0,35.0,28.2,08.0,0006.4,0010.17,0007.12,0006.78
2022-11-21 19:05:00,,0829.2,4.99,0.00,26.3,25.4,00.0,35.0,28.2,07.9,0006.2,0010.37,0007.22,0006.87
2022-11-21 19:06:00,,0829.3,5.00,0.00,26.3,25.4,00.0,35.0,28.2,07.7,0001.5,0011.22,0007.30,0006.95
2022-11-21 19:07:00,,0829.2,5.00,0.00,26.3,25.4,00.0,35.0,28.2,07.5,0000.0,0011.28,0007.38,0007.04
2022-11-21 19:08:00,,0829.2,5.01,0.00,26.4,25.4,00.0,35.1,28.2,07.6,0000.0,0011.27,0007.40,0007.09
2022-11-21 19:09:00,,0829.2,5.00,0.00,26.4,25.4,00.0,35.1,28.3,07.6,0000.0,0011.29,0007.50,0007.18
2022-11-21 19:10:00,,0829.2,5.00,0.00,26.4,25.5,00.0,35.1,28.3,07.6,0000.0,0011.29,0007.59,0007.24
2022-11-21 19:11:00,,0829.3,4.99,0.00,26.4,25.5,00.0,35.1,28.3,07.7,0000.6,0011.63,0007.69,0007.33
2022-11-21 19:12:00,,0829.2,4.99,0.00,26.4,25.5,00.0,35.1,28.3,08.1,0006.3,0011.78,0007.82,0007.46
2022-11-21 19:13:00,,0829.2,5.01,0.00,26.5,25.5,00.0,35.2,28.4,07.9,0006.4,0011.84,0007.92,0007.56
2022-11-21 19:14:00,,0829.2,5.01,0.00,26.5,25.5,00.0,35.2,28.4,08.0,0006.4,0011.96,0008.06,0007.69
2022-11-21 19:15:00,,0829.3,5.00,0.00,26.5,25.6,00.0,35.2,28.4,07.8,0005.1,0012.25,0008.22,0007.82
2022-11-21 19:16:00,,0829.2,4.99,0.00,26.5,25.6,00.0,35.2,28.4,07.7,0000.0,0012.38,0008.34,0007.94
2022-11-21 19:17:00,,0829.2,4.99,0.00,26.5,25.6,00.0,35.3,28.4,07.8,0000.0,0011.88,0008.44,0008.03
2022-11-21 19:18:00,,0829.2,5.01,0.00,26.6,25.6,00.0,35.3,28.5,08.1,0002.3,0012.36,0008.50,0008.11
2022-11-21 19:19:00,,0829.1,5.01,0.00,26.6,25.6,00.0,35.3,28.5,08.2,0007.1,0012.47,0008.58,0008.18
2022-11-21 19:20:00,,0829.1,4.99,0.00,26.6,25.7,00.0,35.3,28.5,07.9,0007.4,0012.56,0008.66,0008.26
2022-11-21 19:21:00,,0829.1,4.99,0.00,26.6,25.7,00.0,35.3,28.5,08.4,0007.0,0012.57,0008.69,0008.33
2022-11-21 19:22:00,,0829.1,4.99,0.00,26.7,25.7,00.0,35.4,28.5,08.1,0006.5,0012.40,0008.74,0008.38
2022-11-21 19:23:00,,0829.1,5.00,0.00,26.7,25.7,00.0,35.4,28.6,08.2,0006.0,0012.47,0008.80,0008.44
2022-11-21 19:24:00,,0829.1,5.00,0.00,26.7,25.7,00.0,35.4,28.6,08.5,0005.4,0012.62,0008.88,0008.51
2022-11-21 19:25:00,,0829.0,5.00,0.00,26.7,25.7,00.0,35.4,28.6,08.4,0005.5,0013.07,0008.91,0008.54
2022-11-21 19:26:00,,0829.0,5.00,0.00,26.7,25.8,00.0,35.4,28.6,08.4,0005.2,0013.65,0008.86,0008.51
2022-11-21 19:27:00,,0829.0,5.00,0.00,26.7,25.8,00.0,35.5,28.6,08.3,0005.2,0013.50,0008.88,0008.50
2022-11-21 19:28:00,,0829.0,5.00,0.00,26.8,25.8,00.0,35.5,28.6,08.5,0005.3,0013.42,0008.90,0008.50
2022-11-21 19:29:00,,0829.0,5.00,0.00,26.8,25.8,00.0,35.5,28.7,08.5,0005.4,0013.00,0008.90,0008.51
2022-11-21 19:30:00,,0829.0,5.00,0.00,26.8,25.8,00.0,35.5,28.7,08.7,0005.2,0013.07,0008.93,0008.53
2022-11-21 19:31:00,,0829.0,4.99,0.00,26.8,25.9,00.0,35.5,28.7,08.3,0005.1,0013.00,0008.91,0008.54
2022-11-21 19:32:00,,0829.0,5.00,0.00,26.8,25.9,00.0,35.6,28.7,07.9,0005.0,0012.93,0008.90,0008.55
2022-11-21 19:33:00,,0829.0,4.99,0.00,26.9,25.9,00.0,35.6,28.7,07.8,0005.2,0012.94,0008.94,0008.58
2022-11-21 19:34:00,,0828.9,5.00,0.00,26.9,25.9,00.0,35.6,28.7,07.9,0004.8,0012.89,0008.90,0008.54
2022-11-21 19:35:00,,0828.9,5.00,0.00,26.9,25.9,00.0,35.6,28.8,07.9,0005.4,0012.74,0008.82,0008.49
2022-11-21 19:36:00,,0828.9,5.00,0.00,26.9,25.9,00.0,35.6,28.8,08.1,0006.0,0012.27,0008.75,0008.45
2022-11-21 19:37:00,,0828.9,5.01,0.00,26.9,25.9,00.0,35.6,28.8,08.4,0004.0,0011.42,0008.74,0008.44
2022-11-21 19:38:00,,0828.9,5.00,0.00,26.9,25.9,00.0,35.7,28.8,08.5,0006.3,0011.47,0008.71,0008.42
2022-11-21 19:39:00,,0828.9,5.00,0.00,27.0,26.0,00.0,35.7,28.8,08.3,0006.3,0011.85,0008.65,0008.38
2022-11-21 19:40:00,,0828.9,5.00,0.00,27.0,26.0,00.0,35.7,28.8,08.1,0001.3,0011.82,0008.63,0008.36
2022-11-21 19:41:00,,0828.9,5.00,0.00,27.0,26.0,00.0,35.7,28.9,08.3,0001.3,0011.77,0008.62,0008.36
2022-11-21 19:42:00,,0828.9,4.99,0.00,27.0,26.0,00.0,35.7,28.9,08.2,0000.3,0011.76,0008.62,0008.35
2022-11-21 19:43:00,,0828.9,4.99,0.00,27.0,26.1,00.0,35.7,28.9,08.1,0005.7,0012.02,0008.63,0008.34
2022-11-21 19:44:00,,0828.9,5.00,0.00,27.1,26.1,00.0,35.8,28.9,08.4,0002.8,0012.34,0008.61,0008.31
2022-11-21 19:45:00,,0828.8,5.00,0.00,27.1,26.1,00.0,35.8,28.9,08.4,0004.7,0012.34,0008.59,0008.31
2022-11-21 19:46:00,,0828.9,5.00,0.00,27.1,26.1,00.0,35.8,29.0,08.5,0006.9,0012.37,0008.61,0008.33
2022-11-21 19:47:00,,0828.9,5.00,0.00,27.1,26.1,00.0,35.8,29.0,08.1,0006.9,0012.85,0008.64,0008.35
2022-11-21 19:48:00,,0828.9,5.00,0.00,27.1,26.1,00.0,35.8,29.0,08.0,0006.9,0013.26,0008.67,0008.37
2022-11-21 19:49:00,,0828.8,5.01,0.00,27.1,26.1,00.0,35.9,29.0,08.1,0007.0,0013.08,0008.70,0008.41
2022-11-21 19:50:00,,0828.9,5.00,0.00,27.2,26.2,00.0,35.9,29.0,08.1,0007.4,0012.60,0008.75,0008.47
2022-11-21 19:51:00,,0828.8,5.00,0.00,27.2,26.2,00.0,35.9,29.0,08.3,0007.3,0012.84,0008.79,0008.51
2022-11-21 19:52:00,,0828.8,5.00,0.00,27.2,26.2,00.0,35.9,29.1,08.5,0007.0,0013.32,0008.83,0008.54
2022-11-21 19:53:00,,0828.9,4.99,0.00,27.2,26.2,00.0,35.9,29.1,08.7,0006.8,0013.44,0008.87,0008.55
2022-11-21 19:54:00,,0829.0,5.00,0.00,27.2,26.2,00.0,36.0,29.1,08.6,0006.0,0013.23,0008.87,0008.56
2022-11-21 19:55:00,,0829.3,5.01,0.00,27.2,26.2,00.0,36.0,29.1,08.2,0005.1,0012.83,0008.83,0008.55
2022-11-21 19:56:00,,0829.2,5.01,0.00,27.3,26.2,00.0,36.0,29.1,08.2,0004.6,0012.71,0008.84,0008.55
2022-11-21 19:57:00,,0829.3,5.00,0.00,27.3,26.2,00.0,36.0,29.1,07.9,0000.0,0012.75,0008.82,0008.52
2022-11-21 19:58:00,,0829.1,5.00,0.00,27.3,26.3,00.0,36.0,29.2,07.6,0001.9,0012.44,0008.82,0008.49
2022-11-21 19:59:00,,0829.1,4.99,0.00,27.3,26.3,00.0,36.0,29.2,07.5,0004.1,0012.05,0008.79,0008.44
